Volver al catálogo

ESSA 6

TOS-D

ActivoMeteoSSO
NORAD 3035·PAYLOAD·🇺🇸 United States

Lanzado Nov 10, 1967 desde Vandenberg Space Force Base

Loading…

Próximos Pases (próximas 24 horas)

TLE

ActualizadoSource: Space-Track

Época: Sep 14, 2026, 05:04 UTC

1 03035U 67114A   26257.21118083 -.00000029  00000-0  10833-3 0  9996
2 03035 102.0220   3.3386 0048516 313.8923  74.6095 12.54250311693773

Sigue ESSA 6 en tiempo real con AllMySat

Download on the App Store